Location: Unspecified
(0.0000°N, 0.0000°E)
Time: 02:28:29
(UTC+02:00)

Delta 168 - Visible Passes

Search period start: 28 March 2017 00:00
Search period end: 07 April 2017 00:00
Orbit: 394 x 2066 km, 25.3° (Epoch: 26 March)

Date Brightness Start Highest point End Pass type
(mag) Time Alt. Az. Time Alt. Az. Time Alt. Az.
28 Mar 6.9 04:30:29 11° SE 04:30:29 11° SE 04:30:50 10° SE visible
28 Mar 5.7 06:20:30 24° SSW 06:21:54 25° SSW 06:29:48 10° SE visible
29 Mar 5.9 06:10:48 22° SSW 06:11:23 22° SSW 06:18:17 10° SE visible
30 Mar 6.0 06:01:04 18° S 06:01:04 18° S 06:06:44 10° SSE visible
31 Mar 6.2 05:51:19 15° S 05:51:19 15° S 05:55:06 10° SSE visible
01 Apr 6.4 05:41:33 12° S 05:41:33 12° S 05:43:16 10° SSE visible
01 Apr 6.6 07:36:36 10° SSW 07:40:20 13° S 07:44:34 10° SSE visible
02 Apr 6.7 07:26:49 10° S 07:29:50 12° S 07:33:09 10° SSE visible
03 Apr 6.7 07:17:12 10° S 07:19:20 11° S 07:21:36 10° SSE visible
04 Apr 6.6 07:08:10 10° S 07:08:50 10° SSE 07:09:31 10° SSE visible
06 Apr 5.7 20:45:45 10° N 20:47:19 11° N 20:48:45 10° NNE visible
